Weather History for KLAL - November, 2014

Change the Weather History Date:

Monday, November 17, 2014

  Actual Average Record
Temperature  
Mean Temperature 73 °F -  
Max Temperature 82 °F 75 °F 86 °F (1986)
Min Temperature 64 °F 58 °F 39 °F (2008)
Cooling Degree Days 8    
Growing Degree Days 23 (Base 50)    
Moisture  
Dew Point 66 °F    
Average Humidity 94    
Maximum Humidity 100    
Minimum Humidity 66    
Precipitation  
Precipitation 0.00 in - - ()
Sea Level Pressure  
Sea Level Pressure 29.99 in    
Wind  
Wind Speed 7 mph (South)    
Max Wind Speed 21 mph    
Max Gust Speed 29 mph    
Visibility 8 miles    
Events Rain    
Averages and records for this station are not official NWS values.
T = Trace of Precipitation, MM = Missing Value Source: NWS Daily Summary

Daily Weather History Graph

Daily Weather History Graph

Search for Another Location

Airport or City:

Trip Planner

Search our weather history database for the weather conditions in past years. The results will help you decide how hot, cold, wet, or windy it might be!

Date:

Astronomy

Nov. 17, 2014 Rise Set
Actual Time 6:51 AM EST 5:34 PM EST
Civil Twilight 6:26 AM EST 5:59 PM EST
Nautical Twilight 5:57 AM EST 6:27 PM EST
Astronomical Twilight 5:29 AM EST 6:55 PM EST
Moon 2:16 AM EST (11/17) 2:35 PM EST (11/17)
Length of Visible Light 11h 33m
Length of Day
10h 43m
Waning Crescent, 23% of the Moon is Illuminated
Nov 17
Waning Crescent
Nov 22
New
Nov 29
First Quarter
Dec 6
Full
Dec 14
Last Quarter

Hourly Weather History & Observations

Time (EST) Temp. Heat Index Dew Point Humidity Pressure Visibility Wind Dir Wind Speed Gust Speed Precip Events Conditions
12:15 AM 68.0 °F - 64.4 °F 88% 30.05 in 10.0 mi SSE 5.8 mph - N/A   Clear
12:35 AM 68.0 °F - 64.4 °F 88% 30.04 in 10.0 mi SSE 4.6 mph - N/A   Clear
12:55 AM 66.2 °F - 64.4 °F 94% 30.04 in 10.0 mi North - - N/A   Clear
1:15 AM 64.4 °F - 64.4 °F 100% 30.03 in 10.0 mi SE 3.5 mph - N/A   Clear
1:35 AM 64.4 °F - 62.6 °F 94% 30.02 in 10.0 mi SSE 4.6 mph - N/A   Clear
1:55 AM 64.4 °F - 62.6 °F 94% 30.01 in 10.0 mi SSE 3.5 mph - N/A   Clear
2:15 AM 64.4 °F - 64.4 °F 100% 30.01 in 10.0 mi SSE 3.5 mph - N/A   Clear
2:35 AM 64.4 °F - 64.4 °F 100% 30.00 in 10.0 mi SSE 5.8 mph - N/A   Clear
2:55 AM 64.4 °F - 64.4 °F 100% 29.99 in 10.0 mi SSE 4.6 mph - N/A   Clear
3:15 AM 66.2 °F - 64.4 °F 94% 29.99 in 10.0 mi SSE 8.1 mph - N/A   Clear
3:35 AM 66.2 °F - 64.4 °F 94% 29.99 in 10.0 mi SSE 8.1 mph - N/A   Clear
3:55 AM 66.2 °F - 64.4 °F 94% 29.99 in 10.0 mi SSE 5.8 mph - N/A   Clear
4:15 AM 66.2 °F - 64.4 °F 94% 29.99 in 10.0 mi SSE 4.6 mph - N/A   Clear
4:35 AM 66.2 °F - 64.4 °F 94% 29.99 in 10.0 mi South 3.5 mph - N/A   Clear
5:50 AM 66.2 °F - 66.2 °F 100% 29.99 in 7.0 mi SSE 4.6 mph - N/A   Clear
6:50 AM 66.2 °F - 66.2 °F 100% 30.00 in 7.0 mi South 4.6 mph - N/A   Mostly Cloudy
7:23 AM 66.2 °F - 66.2 °F 100% 30.01 in 5.0 mi South 3.5 mph - N/A   Mostly Cloudy
7:50 AM 69.8 °F - 68.0 °F 94% 30.01 in 5.0 mi South 8.1 mph - N/A   Mostly Cloudy
8:20 AM 71.6 °F - 69.8 °F 94% 30.02 in 7.0 mi South 6.9 mph - N/A   Scattered Clouds
8:55 AM 75.2 °F - 71.6 °F 89% 30.01 in 7.0 mi South 9.2 mph - N/A   Scattered Clouds
9:50 AM 77.0 °F - 71.6 °F 83% 30.00 in 12.0 mi SSW 11.5 mph 17.3 mph N/A   Mostly Cloudy
10:54 AM 80.6 °F 84.6 °F 71.6 °F 74% 29.97 in 12.0 mi South 20.7 mph - N/A   Mostly Cloudy
11:50 AM 82.4 °F 86.3 °F 69.8 °F 66% 29.95 in 12.0 mi SSW 20.7 mph 28.8 mph N/A   Overcast
12:52 PM 82.4 °F 86.3 °F 69.8 °F 66% 29.92 in 12.0 mi SSW 20.7 mph 27.6 mph N/A   Overcast
1:51 PM 75.2 °F - 71.6 °F 89% 29.92 in 3.0 mi WSW 17.3 mph 25.3 mph N/A Rain Rain
2:50 PM 73.4 °F - 71.6 °F 94% 29.93 in 3.0 mi SW 12.7 mph 17.3 mph N/A Rain Rain
3:50 PM 66.2 °F - 66.2 °F 100% 29.96 in 3.0 mi SSW 8.1 mph - N/A Rain Rain
4:50 PM 66.2 °F - 66.2 °F 100% 29.96 in 7.0 mi SW 6.9 mph - N/A Rain Rain
5:11 PM 66.2 °F - 66.2 °F 100% 29.97 in 4.0 mi South 6.9 mph - N/A Rain Rain
5:50 PM 66.2 °F - 64.4 °F 94% 29.97 in 4.0 mi SSW 8.1 mph - N/A Rain Rain
6:53 PM 66.2 °F - 66.2 °F 100% 29.98 in 4.0 mi South 9.2 mph - N/A Rain Rain
7:26 PM 66.2 °F - 66.2 °F 100% 29.98 in 7.0 mi South 9.2 mph - N/A   Overcast
7:50 PM 66.2 °F - 66.2 °F 100% 29.98 in 7.0 mi SSE 8.1 mph - N/A   Mostly Cloudy
8:50 PM 66.2 °F - 66.2 °F 100% 29.99 in 7.0 mi Calm Calm - N/A   Mostly Cloudy
9:15 PM 66.2 °F - 64.4 °F 94% 30.00 in 10.0 mi North - - N/A   Light Drizzle
9:35 PM 66.2 °F - 64.4 °F 94% 30.01 in 10.0 mi North - - N/A Rain Rain
9:50 PM 66.2 °F - 66.2 °F 100% 30.00 in 7.0 mi South 4.6 mph - N/A Rain Light Rain
9:55 PM 66.2 °F - 64.4 °F 94% 29.99 in 7.0 mi South 4.6 mph - N/A Rain Light Rain
10:15 PM 66.2 °F - 64.4 °F 94% 29.99 in 5.0 mi North - - N/A   Overcast
10:35 PM 66.2 °F - 64.4 °F 94% 30.00 in 10.0 mi North - - N/A   Overcast
10:55 PM 66.2 °F - 64.4 °F 94% 30.01 in 10.0 mi SW 5.8 mph - N/A   Overcast
11:15 PM 66.2 °F - 64.4 °F 94% 30.01 in 10.0 mi SSW 6.9 mph - N/A   Overcast
11:35 PM 66.2 °F - 66.2 °F 100% 30.01 in 10.0 mi SSW 9.2 mph - N/A   Overcast
11:55 PM 66.2 °F - 66.2 °F 100% 30.01 in 10.0 mi SSW 8.1 mph - N/A   Overcast